EHI
3 3 4 4 3 3 3 1 0 0 0 0 0 0 0 0 0 0 0 0 0 0 0 0 0 0 0 0 0 0 0 0 0 0 0 0 0 0 0 0 0 0 0
3 3 3 3 3 3 3 2 1 0 0 0 0 0 0 0 0 0 0 0 0 0 0 0 0 0 0 0 0 0 0 0 0 0 0 0 0 0 0 0 0 0 0
5 4 3 3 3 3 3 3 1 0 0 0 0 0 0 0 0 0 0 0 0 0 0 0 0 0 0 0 0 0 0 0 0 0 0 0 0 0 0 0 0 0 0
5 3 2 3 4 3 3 3 2 1 0 0 0 0 0 0 0 0 0 0 0 0 0 0 0 0 0 0 0 0 0 0 0 0 0 0 0 0 0 0 0 0 0
4 2 2 4 5 5 4 4 3 1 0 0 0 0 0 0 0 0 0 0 0 0 0 0 0 0 0 0 0 0 0 0 0 0 0 0 0 0 0 0 0 0 0
5 3 4 7 8 7 6 5 4 2 1 1 1 1 1 0 0 0 0 0 0 0 0 0 0 0 0 0 0 0 0 0 0 0 0 0 0 0 0 0 0 0 0
8 6 6 9 10 9 7 6 5 3 2 2 2 2 1 0 0 0 0 0 0 0 0 0 0 0 0 0 0 0 0 0 0 0 0 0 0 0 0 0 0 0 0
9 7 6 8 9 7 5 5 4 3 2 2 2 2 1 0 0 0 0 0 0 0 0 0 0 0 0 0 0 0 0 0 0 0 0 0 0 0 0 0 0 0 0
8 6 4 4 4 3 2 2 1 1 1 1 1 1 0 0 0 0 0 0 0 0 1 1 0 0 0 0 0 0 0 0 0 0 0 0 0 0 0 0 0 0 0
6 5 3 1 0 0 0 0 0 0 0 0 0 0 0 0 0 0 0 0 0 0 1 1 0 0 0 0 0 0 0 0 0 0 0 0 0 0 0 0 0 0 0
6 6 4 1 0 0 0 0 0 0 0 0 0 0 0 0 0 0 0 0 0 0 1 1 0 0 0 0 0 0 0 0 0 0 0 0 0 0 0 0 0 0 0
5 5 3 1 0 0 0 0 0 0 0 0 0 0 0 0 0 0 0 0 0 0 0 0 0 0 0 0 0 0 0 0 0 0 0 0 0 0 0 0 0 0 0
2 2 1 1 0 0 0 0 0 1 1 0 0 0 0 0 0 0 0 0 0 0 0 0 0 0 0 0 0 0 0 0 0 0 0 0 0 0 0 0 0 0 0
1 1 1 0 0 0 1 1 1 2 2 1 0 0 0 0 0 0 0 0 0 0 0 0 0 0 0 0 0 0 0 0 0 0 0 0 0 0 0 0 0 0 0
0 0 0 0 0 0 1 1 2 3 2 1 1 1 0 0 0 0 0 0 0 0 0 0 0 0 0 0 0 0 0 0 0 0 0 0 0 0 0 0 0 0 0
0 0 0 0 0 0 0 1 1 3 3 2 3 2 0 0 0 0 0 0 0 0 0 0 0 0 0 0 0 0 0 0 0 0 0 0 0 0 0 0 0 0 0
0 0 0 0 0 0 0 0 0 1 2 3 4 3 1 0 0 0 0 0 0 0 0 0 0 0 0 0 0 0 0 0 0 0 0 0 0 0 0 0 0 0 1
0 0 0 0 0 0 0 0 0 0 1 3 4 3 1 0 0 0 0 0 0 0 0 0 0 0 0 0 0 0 0 0 0 0 0 0 0 0 0 0 0 0 1
0 0 0 0 0 0 0 0 0 0 0 1 2 2 1 0 0 0 0 0 0 0 0 0 0 0 0 0 0 0 0 0 0 0 0 0 0 0 0 0 0 0 1
0 0 0 0 0 0 0 0 0 0 0 0 1 1 1 0 0 0 0 0 0 0 0 0 0 0 0 0 0 0 0 0 0 0 0 0 0 0 0 0 0 0 0
0 0 0 0 0 0 0 0 0 0 0 0 0 0 0 0 0 0 0 0 0 0 0 0 0 0 0 0 0 0 0 0 0 0 0 0 0 0 0 0 0 0 0
0 0 0 0 0 0 0 0 0 0 0 0 0 0 0 0 1 0 0 0 0 0 0 0 0 0 0 0 0 0 0 0 0 0 0 0 0 0 0 0 0 0 0
0 0 0 0 0 0 0 0 0 0 0 0 0 0 0 0 0 0 0 0 0 0 0 0 0 0 0 0 0 0 0 0 0 0 0 0 0 0 0 0 0 0 0
0 0 0 0 0 0 0 0 0 0 0 0 0 0 0 0 0 0 0 0 0 0 0 0 0 0 0 0 0 0 0 0 0 0 0 0 0 0 0 0 0 0 0
0 0 0 0 0 0 0 0 0 0 0 0 0 0 0 0 0 0 0 0 0 0 0 0 0 0 0 0 0 0 0 0 0 0 0 0 0 0 0 0 0 0 0
0 0 0 0 0 0 0 0 0 0 0 0 0 0 0 0 0 0 0 0 0 0 0 0 0 0 0 0 0 0 0 0 0 0 0 0 0 0 0 0 0 0 0
Wind_Speed
4 4 5 6 7 8 8 9 9 10 10 10 11 11 12 12 12 12 12 13 13 13 12 12 12 12 13 12 12 13 13 13 13 13 13 13 13 13 13 12 11 9 14
4 4 6 7 7 8 8 8 9 10 10 10 10 11 11 11 12 12 12 12 12 12 13 12 12 12 12 12 12 11 11 11 11 11 11 10 11 13 13 13 12 8 13
5 5 5 8 8 8 8 9 9 9 10 10 10 10 11 11 11 12 12 13 12 12 12 12 12 12 12 12 11 10 10 9 8 8 8 5 7 12 13 13 12 12 12
5 5 5 7 9 9 8 9 9 9 10 10 10 10 10 11 11 11 12 12 12 12 12 12 12 12 11 11 10 10 8 7 7 7 5 5 5 11 12 12 12 12 12
6 6 6 8 9 9 9 9 9 9 9 10 10 10 10 10 11 11 11 12 12 12 12 12 12 12 11 10 9 9 8 7 7 6 5 5 5 10 11 11 11 11 11
7 6 6 9 9 9 10 10 9 9 9 9 10 10 10 10 10 10 10 11 11 12 12 12 12 11 11 10 9 8 8 7 6 4 5 5 4 9 11 11 10 10 11
6 6 6 8 10 10 10 10 10 9 9 9 9 10 10 10 10 10 10 10 10 11 11 11 11 11 11 10 9 8 8 8 5 5 5 5 5 9 10 10 10 10 10
6 6 5 8 9 10 10 10 10 10 9 9 10 10 10 10 10 10 10 10 10 10 10 10 10 10 10 9 8 8 9 7 6 5 5 4 7 9 9 10 9 9 9
6 5 5 5 6 8 9 10 11 10 9 9 9 9 9 9 10 10 10 10 10 9 9 9 9 9 9 9 8 7 8 9 4 3 5 3 7 8 8 8 9 9 9
5 5 4 4 4 4 5 8 9 9 9 9 9 8 8 8 8 9 9 9 9 9 9 9 8 8 8 8 8 7 7 6 4 4 3 4 8 8 9 9 8 8 8
4 4 4 4 4 4 3 5 6 6 7 7 6 7 6 4 4 5 7 9 9 9 9 8 8 7 8 7 8 7 5 3 4 3 3 6 8 8 8 8 8 8 8
3 3 3 3 3 3 2 3 2 3 3 3 3 3 2 3 3 4 6 7 8 8 8 8 8 7 5 2 4 6 2 3 3 3 4 7 7 7 7 7 7 7 8
3 3 3 3 2 2 2 2 1 1 1 2 3 3 2 2 2 2 2 3 3 4 3 4 4 2 2 2 2 2 2 2 2 3 4 7 6 6 6 6 6 6 6
3 3 3 2 2 2 2 1 1 1 1 1 2 3 3 2 2 2 1 1 2 1 2 2 1 2 3 3 2 2 3 2 2 2 3 7 7 5 5 4 4 4 5
3 3 2 2 2 2 1 1 2 2 1 1 2 2 3 2 2 1 1 1 1 1 1 2 2 2 2 2 2 2 3 3 3 3 2 6 6 5 4 4 3 3 3
4 3 2 2 2 1 1 1 1 1 1 1 1 2 2 2 2 1 1 1 1 1 1 1 1 1 1 1 2 2 2 2 2 2 2 2 4 4 4 2 2 2 2
5 4 3 2 1 1 1 1 1 1 1 1 1 2 2 2 2 2 1 1 1 1 1 1 1 1 1 2 2 2 2 2 2 2 2 1 1 3 4 3 1 1 2
5 5 4 3 2 1 1 0 0 0 1 1 0 1 2 2 2 1 1 1 1 1 1 1 1 1 1 1 1 1 1 1 1 1 1 1 1 1 2 3 2 2 1
5 5 4 3 3 2 1 1 0 0 0 0 0 1 1 1 1 1 1 1 1 1 1 1 1 1 1 1 1 0 1 1 1 1 1 1 1 0 0 2 2 1 2
5 5 5 4 3 2 1 1 0 0 0 0 0 1 1 1 1 1 1 1 0 0 0 0 1 1 0 0 1 1 1 1 1 0 0 0 0 0 0 0 1 1 1
5 5 5 5 4 3 2 1 1 1 1 1 1 1 1 1 1 1 1 1 0 0 0 0 0 0 0 1 1 1 1 1 1 0 0 0 0 0 0 1 0 1 1
6 6 6 5 5 4 3 2 1 1 1 1 1 1 2 2 2 2 2 1 1 1 1 1 1 0 0 1 1 0 1 1 1 1 0 0 1 1 1 0 0 1 1
6 6 6 5 5 4 3 2 1 0 0 1 1 1 2 2 2 2 2 2 2 2 2 2 2 2 1 1 1 1 1 2 1 1 1 1 1 1 1 1 1 2 1
6 5 5 5 5 4 4 4 4 3 2 2 2 2 2 2 2 2 3 3 3 2 2 2 2 1 2 2 1 1 1 1 1 1 1 1 1 1 1 2 1 1 2
5 5 5 5 4 4 4 5 4 3 2 2 2 2 2 3 3 2 3 3 3 2 3 2 2 2 2 2 2 1 1 1 1 2 2 2 1 1 1 1 1 1 1
4 4 4 5 4 4 4 4 4 4 3 3 3 3 3 2 2 3 3 3 3 3 3 3 2 3 3 3 2 2 2 2 2 1 2 3 2 2 2 1 1 1 1
Wind_Direction
65 60 46 48 52 53 54 54 57 58 57 61 64 63 58 57 59 61 61 61 62 62 64 66 67 66 67 68 67 66 66 65 68 67 64 66 68 71 72 72 73 74 78
76 75 55 55 57 60 61 58 62 62 60 59 62 62 60 59 60 62 63 61 62 62 63 66 68 68 67 68 68 67 66 68 71 70 67 63 66 71 71 70 71 78 81
74 80 67 52 57 65 67 64 66 65 64 62 62 62 63 62 60 61 63 60 59 60 61 64 66 68 66 66 68 68 66 65 67 68 67 62 68 74 75 75 76 79 82
76 77 72 59 62 63 69 69 69 67 66 64 62 61 63 63 62 64 63 60 59 59 60 62 63 64 65 66 67 66 62 53 53 65 62 60 65 78 79 78 77 80 81
76 71 70 66 67 64 66 70 69 68 67 66 63 60 63 63 62 64 63 60 58 59 61 61 62 60 60 63 63 59 52 42 42 54 56 57 57 80 81 79 77 78 80
76 71 70 66 68 67 65 69 70 70 68 67 65 61 62 62 62 62 63 62 59 58 61 62 60 59 56 58 58 52 42 34 42 56 58 55 56 82 84 83 79 79 81
77 72 77 69 67 66 66 66 70 71 70 67 65 64 64 64 64 65 65 62 61 60 60 60 59 59 57 56 55 46 33 31 44 57 55 51 59 81 83 84 82 81 81
84 81 83 72 69 64 62 62 64 67 68 67 64 63 64 66 63 64 65 61 61 63 62 62 60 58 55 54 54 43 31 35 45 57 56 51 64 79 83 82 81 81 82
89 83 81 75 71 66 62 62 57 60 64 65 64 62 62 64 62 60 59 60 59 62 64 63 61 59 56 51 47 36 33 38 36 47 57 55 70 77 83 84 82 78 79
88 85 80 70 67 68 68 63 60 56 60 61 62 58 57 58 59 58 53 52 54 57 62 63 63 59 56 48 39 33 36 29 33 48 47 60 76 81 82 83 83 78 76
87 82 84 78 66 58 70 71 67 60 60 60 59 56 58 60 61 59 52 49 48 49 54 56 58 59 55 43 32 33 36 33 40 43 45 60 74 80 79 79 79 78 76
100 89 81 82 81 69 69 75 66 62 63 57 53 54 59 62 62 62 56 47 43 43 45 47 49 56 49 34 26 30 27 28 47 43 43 58 67 76 80 79 78 75 76
114 91 76 74 81 77 63 75 62 59 58 66 57 37 42 63 61 60 62 46 37 39 35 32 39 35 32 35 35 28 23 31 50 50 42 48 52 63 74 79 81 80 78
126 107 83 76 74 65 58 76 75 62 52 69 72 55 43 46 57 56 66 50 40 27 16 25 25 21 23 32 35 31 24 42 49 57 46 44 42 44 57 69 79 85 85
139 127 106 82 79 65 55 57 76 60 52 58 81 70 61 53 53 55 61 62 37 23 21 17 22 19 23 26 28 31 31 38 48 58 49 39 38 35 41 53 64 83 93
152 144 133 114 93 75 64 54 85 88 70 41 83 83 73 68 57 48 60 61 39 22 14 25 18 21 20 28 23 32 34 28 45 61 70 42 33 30 26 36 54 74 99
162 152 150 150 128 120 91 58 78 100 110 75 74 94 84 71 69 61 51 63 28 13 13 12 34 43 34 30 23 19 26 33 39 54 63 63 26 19 17 12 44 66 112
159 157 160 167 152 143 130 145 112 94 105 126 103 109 103 85 74 83 63 30 17 29 24 359 35 51 41 43 23 4 10 18 17 53 61 54 52 9 355 3 17 53 100
166 161 162 160 163 160 154 180 184 131 104 162 116 104 114 108 89 96 104 24 7 56 36 345 23 55 55 33 351 355 6 352 310 17 56 46 46 45 11 357 4 38 63
168 163 164 164 166 156 154 156 125 126 138 167 152 153 148 148 131 120 137 100 13 72 65 9 21 30 72 18 327 356 311 258 271 294 115 42 30 59 77 116 329 301 47
168 169 172 171 170 159 166 175 177 197 194 194 209 210 187 176 164 155 153 154 156 197 195 209 106 97 78 46 46 347 312 244 187 158 92 93 312 291 225 199 224 273 234
177 179 179 180 177 175 182 191 196 186 217 215 210 231 214 193 182 187 175 177 181 189 211 204 119 152 210 80 92 63 326 316 326 357 37 75 355 351 327 327 194 284 214
185 187 190 185 182 182 178 169 166 132 182 223 208 228 232 213 202 197 198 186 188 186 205 219 184 168 183 194 132 142 166 217 308 295 321 30 25 1 339 348 13 351 293
188 186 187 184 185 184 178 178 179 192 214 229 213 215 231 221 217 213 202 196 196 197 202 223 210 186 174 193 202 226 210 178 191 280 288 291 321 324 334 342 350 352 345
179 180 185 185 188 188 187 186 194 208 221 218 204 207 227 223 213 216 209 198 198 202 203 210 218 198 192 195 200 221 257 278 208 205 251 257 283 285 312 317 321 296 334
170 173 178 186 191 190 193 195 203 208 207 209 219 211 220 218 213 213 222 211 205 202 203 209 209 212 210 206 210 210 212 219 224 230 243 244 260 273 286 277 270 263 262